{"data":{"norad_id":59767,"intl_designator":"2024-091Q","name":"STARLINK-31828","alt_names":[],"object_type":"PAYLOAD","status":"ACTIVE","operator":null,"country":"US","launch_date":"2024-05-14","launch_site_code":"AFWTR","launch_vehicle":null,"mission":null,"orbit_class":"UNKNOWN","rcs_meters":null,"size_class":null,"mass_kg":null,"dimensions":null,"purposes":["comms"],"wikipedia_slug":null,"has_3d_model":false,"image_url":null,"decayed_at":null,"tle_current":{"epoch":"2026-09-21T07:02:01.597056Z","epoch_age_seconds":102815,"freshness":"FRESH","line1":"1 59767U 24091Q   26264.29307404  .00000620  00000+0  31732-4 0  9996","line2":"2 59767  53.1602 196.8041 0001294  81.9968 278.1180 15.31705664132976","mean_motion":15.31705664,"eccentricity":0.0001294,"inclination_deg":53.1602,"raan_deg":196.8041,"arg_perigee_deg":81.9968,"mean_anomaly_deg":278.118,"bstar":3.1732e-5,"rev_number":13297,"period_min":94.012840315514,"perigee_km":469.83686869002,"apogee_km":471.60935368679,"semimajor_km":6848.8601111884,"source":"CELESTRAK","updated_at":"2026-09-22T09:00:49.069754Z"}}}